Newport, AR

2:34 AM CST on December 06, 2019 (GMT -0600)
Newport

Weather History for KM19 - November, 2019

Change the Weather History Date:

Thursday, November 14, 2019

  Actual Average (WUND) Record (WUND)
Temperature  
Mean Temperature 40 °F -  
Max Temperature 51 °F - - (-1)
Min Temperature 28 °F - - (-1)
Degree Days  
Heating Degree Days 26    
Moisture  
Dew Point 29 °F    
Average Humidity 69    
Maximum Humidity 92    
Minimum Humidity 39    
Precipitation  
Precipitation 0.00 in - - ()
Sea Level Pressure  
Sea Level Pressure 30.30 in    
Wind  
Wind Speed 5 mph ()    
Max Wind Speed 10 mph    
Max Gust Speed -    
Visibility 8.6 miles    
Events      
Averages and records for this station are not official NWS values.
T = Trace of Precipitation, MM = Missing Value Source: Averaged Metar Reports

Daily Weather History Graph

Daily Weather History Graph

Search for Another Location

Airport or City:

Astronomy

Nov. 14, 2019 Rise Set
Actual Time 6:39 AM CST 4:58 PM CST
Civil Twilight 6:12 AM CST 5:25 PM CST
Nautical Twilight 5:41 AM CST 5:56 PM CST
Astronomical Twilight 5:11 AM CST 6:26 PM CST
Moon 6:47 PM CST (11/14) 8:32 AM CST (11/14)
Length of Visible Light 11h 13m
Length of Day
10h 19m
Waning Gibbous, 95% of the Moon is Illuminated
Nov 14
Waning Gibbous
Nov 19
Last Quarter
Nov 26
New
Dec 4
First Quarter
Dec 11
Full

Hourly Weather History & Observations

Time (CST) Temp. Windchill Dew Point Humidity Pressure Visibility Wind Dir Wind Speed Gust Speed Precip Events Conditions
12:56 AM 28.9 °F 22.8 °F 24.1 °F 82% 30.23 in 10.0 mi SSW 5.8 mph - N/A   Scattered Clouds
1:56 AM 28.9 °F 19.8 °F 25.0 °F 85% 30.23 in 10.0 mi South 10.4 mph - N/A   Mostly Cloudy
2:56 AM 30.0 °F 21.1 °F 26.1 °F 85% 30.24 in 10.0 mi South 10.4 mph - N/A   Mostly Cloudy
3:56 AM 28.9 °F 21.1 °F 26.1 °F 89% 30.24 in 10.0 mi SSW 8.1 mph - N/A   Clear
4:56 AM 30.0 °F 25.2 °F 27.0 °F 88% 30.25 in 10.0 mi SSW 4.6 mph - N/A   Overcast
5:56 AM 30.9 °F 26.2 °F 28.0 °F 89% 30.25 in 10.0 mi South 4.6 mph - N/A   Overcast
6:56 AM 32.0 °F 27.5 °F 28.9 °F 88% 30.27 in 10.0 mi South 4.6 mph - N/A   Overcast
7:56 AM 33.1 °F - 28.0 °F 82% 30.29 in 10.0 mi Calm Calm - N/A   Overcast
8:56 AM 37.0 °F 34.5 °F 28.9 °F 73% 30.31 in 10.0 mi South 3.5 mph - N/A   Clear
10:56 AM 46.0 °F 41.4 °F 25.0 °F 44% 30.32 in 9.0 mi NNW 9.2 mph - N/A   Clear
11:56 AM 48.0 °F - 26.1 °F 42% 30.32 in 10.0 mi NNW 6.9 mph - N/A   Clear
12:56 PM 50.0 °F - 26.1 °F 39% 30.31 in 10.0 mi Variable 4.6 mph - N/A   Clear
1:56 PM 51.1 °F - 28.0 °F 41% 30.28 in 10.0 mi East 6.9 mph - N/A   Clear
2:56 PM 51.1 °F - 28.0 °F 41% 30.28 in 9.0 mi East 6.9 mph - N/A   Clear
3:56 PM 50.0 °F - 28.9 °F 44% 30.25 in 10.0 mi NE 6.9 mph - N/A   Clear
4:43 PM 46.4 °F - 33.8 °F 62% 30.28 in 1.8 mi Calm Calm - N/A   Haze
4:59 PM 46.4 °F 45.2 °F 32.0 °F 57% 30.27 in 1.2 mi ESE 3.5 mph - N/A   Haze
5:02 PM 46.4 °F - 30.2 °F 53% 30.27 in 0.8 mi Calm Calm - N/A   Haze
5:12 PM 46.4 °F 45.2 °F 30.2 °F 53% 30.28 in 1.2 mi East 3.5 mph - N/A   Haze
5:15 PM 44.6 °F 42.2 °F 30.2 °F 57% 30.28 in 8.0 mi East 4.6 mph - N/A   Clear
5:56 PM 44.1 °F 42.5 °F 32.0 °F 63% 30.31 in 10.0 mi NE 3.5 mph - N/A   Clear
6:56 PM 41.0 °F - 33.1 °F 73% 30.33 in 10.0 mi Calm Calm - N/A   Clear
7:56 PM 37.9 °F 34.4 °F 33.1 °F 83% 30.36 in 10.0 mi NNW 4.6 mph - N/A   Clear
8:56 PM 37.0 °F 33.3 °F 33.1 °F 86% 30.36 in 10.0 mi NNE 4.6 mph - N/A   Clear
9:56 PM 34.0 °F 28.8 °F 30.9 °F 89% 30.38 in 10.0 mi NNW 5.8 mph - N/A   Clear
10:56 PM 34.0 °F 28.8 °F 30.0 °F 85% 30.39 in 10.0 mi NNW 5.8 mph - N/A   Clear
11:56 PM 30.9 °F 23.5 °F 28.9 °F 92% 30.39 in 10.0 mi North 8.1 mph - N/A   Clear